EW0407 Athens GR current weather conditions

sailwx.info

Wind from 195

Air temperature 13.9° C
Dewpoint 8.5° C

Last reported at 2020-Jan-26 10:00 UTC.
Time now 2020-Jan-26 10:22 UTC

Location: N 38°02' E 023°50'.
View on Google Maps.

See reports from other nearby stations

  
Tides and Currents Weather Stations Pressure Air Temp Water Temp Dewpoint Dewpoint Depression Visibility Wind Speed Wind Dir Waves Ship Positions
date/time (UTC)wind fromknots sea level pressurealtimeterstation pressurevisibilityair tempwater tempwave heightnotes
2020-Jan-26 10:00 195 13.9
2020-Jan-26 09:51 130 0 gusting 0 13.9
2020-Jan-26 09:40 305 1 gusting 1 13.3
2020-Jan-26 09:31 217 0 gusting 0 13.3
2020-Jan-26 09:20 13.9
2020-Jan-26 09:11 219 0 gusting 1 13.9
2020-Jan-26 09:00 13.9
2020-Jan-26 08:51 215 0 gusting 1 13.3
2020-Jan-26 08:40 13.9
2020-Jan-26 08:31 187 0 gusting 0 13.3
2020-Jan-26 08:20 13.3
2020-Jan-26 08:11 13.9
2020-Jan-26 08:00 13.9
2020-Jan-26 07:51 137 0 gusting 0 14.4
2020-Jan-26 07:40 125 0 gusting 0 13.9
2020-Jan-26 07:31 13.3
2020-Jan-26 07:20 083 0 gusting 0 12.2
2020-Jan-26 07:11 072 0 gusting 0 11.1
2020-Jan-26 07:00 081 0 gusting 0 10.0
2020-Jan-26 06:51 089 0 gusting 1 9.4
2020-Jan-26 06:40 078 0 gusting 1 8.9
2020-Jan-26 06:31 071 0 gusting 1 8.9
2020-Jan-26 06:20 074 1 gusting 1 8.9
2020-Jan-26 06:11 069 1 gusting 1 8.9
2020-Jan-26 06:00 089 0 gusting 1 8.3
2020-Jan-26 05:51 085 0 gusting 1 8.3
2020-Jan-26 05:40 088 8.3
2020-Jan-26 05:31 064 1 gusting 2 8.3
2020-Jan-26 05:20 066 0 gusting 1 8.3
2020-Jan-26 05:11 061 0 gusting 0 8.9
2020-Jan-26 05:00 069 0 gusting 1 8.9
2020-Jan-26 04:51 060 0 gusting 1 8.3
2020-Jan-26 04:40 056 0 gusting 0 8.3
2020-Jan-26 04:30 080 1 gusting 1 8.3
2020-Jan-26 04:19 048 7.8
2020-Jan-26 04:10 081 1 gusting 2 7.8
2020-Jan-26 03:59 063 0 gusting 0 8.3
2020-Jan-26 03:49 073 0 gusting 1 8.3
2020-Jan-26 03:38 072 0 gusting 0 8.9
2020-Jan-26 03:29 059 0 gusting 0 8.9
2020-Jan-26 03:18 050 9.4
2020-Jan-26 03:09 036 0 gusting 0 9.4
2020-Jan-26 02:58 059 0 gusting 0 9.4
2020-Jan-26 02:49 064 1 gusting 1 9.4
2020-Jan-26 02:38 053 0 gusting 0 8.9
2020-Jan-26 02:29 074 10.0
2020-Jan-26 02:18 072 0 gusting 0 10.0
2020-Jan-26 02:09 066 0 gusting 0 10.0
2020-Jan-26 01:58 10.0
2020-Jan-26 01:49 357 2 gusting 2 10.6
2020-Jan-26 01:38 019 1 gusting 1 10.6
2020-Jan-26 01:29 358 1 gusting 1 10.6
2020-Jan-26 01:18 005 1 gusting 2 10.0
2020-Jan-26 01:07 042 10.0
2020-Jan-26 00:58 038 10.0
2020-Jan-26 00:47 10.0
2020-Jan-26 00:38 011 0 gusting 1 10.0
2020-Jan-26 00:27 022 1 gusting 1 10.0
2020-Jan-26 00:17 025 0 gusting 1 10.0
2020-Jan-26 00:06 016 0 gusting 1 10.0
2020-Jan-25 23:57 036 0 gusting 1 10.6
2020-Jan-25 23:46 004 1 gusting 1 10.0
2020-Jan-25 23:37 015 1 gusting 1 10.0
2020-Jan-25 23:26 041 0 gusting 0 10.0
2020-Jan-25 23:15 023 0 gusting 0 10.0
2020-Jan-25 23:05 9.4
2020-Jan-25 22:56 055 0 gusting 0 9.4
2020-Jan-25 22:46 040 1 gusting 1 9.4
2020-Jan-25 22:35 051 1 gusting 1 8.9
2020-Jan-25 22:26 067 0 gusting 1 8.9
2020-Jan-25 22:15 071 0 gusting 0 8.9
2020-Jan-25 22:06 082 0 gusting 1 8.9
2020-Jan-25 21:55 039 1 gusting 1 8.9
2020-Jan-25 21:44 067 0 gusting 0 8.9
2020-Jan-25 21:34 072 0 gusting 1 8.9
2020-Jan-25 21:25 043 0 gusting 1 8.9
2020-Jan-25 21:14 054 0 gusting 1 8.9
2020-Jan-25 21:04 066 1 gusting 1 8.3
2020-Jan-25 20:53 067 8.9
2020-Jan-25 20:44 065 0 gusting 1 8.9
2020-Jan-25 20:33 066 0 gusting 1 8.9
2020-Jan-25 20:24 051 0 gusting 0 8.9
2020-Jan-25 20:13 034 0 gusting 1 9.4
2020-Jan-25 20:04 9.4
2020-Jan-25 19:53 069 0 gusting 0 9.4
2020-Jan-25 19:44 060 0 gusting 1 8.9
2020-Jan-25 19:33 050 0 gusting 0 8.9
2020-Jan-25 19:24 066 0 gusting 1 8.9
2020-Jan-25 19:13 9.4
2020-Jan-25 19:04 080 0 gusting 1 8.9
2020-Jan-25 18:53 062 9.4
2020-Jan-25 18:44 017 0 gusting 1 8.9
2020-Jan-25 18:33 331 8.9
2020-Jan-25 18:24 9.4
2020-Jan-25 18:13 318 0 gusting 1 9.4
2020-Jan-25 18:04 10.0
2020-Jan-25 17:53 080 10.0
2020-Jan-25 17:44 111 0 gusting 1 10.0
2020-Jan-25 17:33 115 3 gusting 4 10.0
2020-Jan-25 17:24 10.0
2020-Jan-25 17:13 105 10.0
2020-Jan-25 17:04 078 0 gusting 0 10.0
2020-Jan-25 16:53 098 0 gusting 1 10.0
2020-Jan-25 16:44 085 0 gusting 0 10.0
2020-Jan-25 16:33 082 10.0
2020-Jan-25 16:24 080 0 gusting 0 10.0
2020-Jan-25 16:13 080 0 gusting 0 10.0
2020-Jan-25 16:04 083 0 gusting 0 10.6
2020-Jan-25 15:53 100 0 gusting 1 10.6
2020-Jan-25 15:44 131 0 gusting 0 10.6
2020-Jan-25 15:33 118 1 gusting 1 11.1
2020-Jan-25 15:24 138 1 gusting 2 11.1
2020-Jan-25 15:13 138 1 gusting 2 11.7
2020-Jan-25 15:04 144 3 gusting 6 12.2
2020-Jan-25 14:53 181 2 gusting 4 12.8
2020-Jan-25 14:43 211 2 gusting 2 12.8
2020-Jan-25 14:32 179 2 gusting 4 13.3
2020-Jan-25 14:23 148 0 gusting 0 13.9
2020-Jan-25 14:12 206 0 gusting 1 14.4
2020-Jan-25 14:03 288 1 gusting 2 13.9
2020-Jan-25 13:52 273 0 gusting 1 13.9
2020-Jan-25 13:43 280 3 gusting 6 13.9
2020-Jan-25 13:32 244 1 gusting 1 13.9
2020-Jan-25 13:23 185 0 gusting 4 13.9
2020-Jan-25 13:12 203 0 gusting 2 13.3
2020-Jan-25 13:03 252 1 gusting 1 13.9
2020-Jan-25 12:52 237 3 gusting 4 13.9
2020-Jan-25 12:41 207 2 gusting 2 13.9
2020-Jan-25 12:31 224 3 gusting 6 13.3
2020-Jan-25 12:22 208 0 gusting 2 13.9
2020-Jan-25 12:11 247 2 gusting 4 13.3
2020-Jan-25 12:02 199 0 gusting 2 13.3
2020-Jan-25 11:51 277 2 gusting 4 12.8
2020-Jan-25 11:42 197 0 gusting 2 12.8
2020-Jan-25 11:31 219 2 gusting 2 12.8
2020-Jan-25 11:22 271 3 gusting 3 13.3
2020-Jan-25 11:11 260 2 gusting 4 12.2
2020-Jan-25 11:02 283 4 gusting 4 13.3
2020-Jan-25 10:51 290 3 gusting 6 12.2
2020-Jan-25 10:42 283 1 gusting 5 12.8
2020-Jan-25 10:31 208 1 gusting 2 12.2
2020-Jan-25 10:22 275 4 gusting 6 11.7
2020-Jan-25 10:11 212 0 gusting 4 11.7
2020-Jan-25 10:02 243 5 gusting 6 11.7
2020-Jan-25 09:51 290 4 gusting 5 12.2
2020-Jan-25 09:42 224 2 gusting 2 11.7
2020-Jan-25 09:31 253 1 gusting 1 11.1
2020-Jan-25 09:22 245 2 gusting 2 11.7
2020-Jan-25 09:11 265 2 gusting 4 10.6
2020-Jan-25 09:02 225 0 gusting 2 10.6
2020-Jan-25 08:51 242 1 gusting 1 10.6
2020-Jan-25 08:42 243 1 gusting 1 10.0
2020-Jan-25 08:31 303 4 gusting 5 10.0
2020-Jan-25 08:21 9.4
2020-Jan-25 08:10 216 1 gusting 4 9.4
2020-Jan-25 08:01 191 2 gusting 4 9.4
2020-Jan-25 07:50 342 2 gusting 2 9.4
2020-Jan-25 07:41 355 1 gusting 4 8.9
2020-Jan-25 07:30 321 2 gusting 2 8.9
2020-Jan-25 07:21 324 1 gusting 1 8.9
2020-Jan-25 07:10 312 2 gusting 2 8.9
2020-Jan-25 07:01 319 0 gusting 1 8.9
2020-Jan-25 06:50 313 1 gusting 2 8.3
2020-Jan-25 06:41 346 0 gusting 2 8.3
2020-Jan-25 06:30 331 1 gusting 1 7.8
2020-Jan-25 06:21 355 0 gusting 1 7.8
2020-Jan-25 06:10 7.2
2020-Jan-25 06:01 344 1 gusting 4 7.2
2020-Jan-25 05:50 336 2 gusting 2 6.7
2020-Jan-25 05:41 345 1 gusting 2 7.2
2020-Jan-25 05:30 339 1 gusting 1 6.7
2020-Jan-25 05:21 328 2 gusting 4 6.7
2020-Jan-25 05:10 335 2 gusting 2 6.7
2020-Jan-25 05:01 330 3 gusting 4 6.7
2020-Jan-25 04:50 344 2 gusting 2 6.7
2020-Jan-25 04:41 315 2 gusting 2 6.7
2020-Jan-25 04:30 357 1 gusting 2 6.7
2020-Jan-25 04:21 353 0 gusting 1 6.7
2020-Jan-25 04:10 334 2 gusting 2 6.7
2020-Jan-25 04:01 349 1 gusting 1 6.1
2020-Jan-25 03:50 060 0 gusting 0 6.1
2020-Jan-25 03:41 021 0 gusting 1 6.1
2020-Jan-25 03:30 071 0 gusting 0 5.6
2020-Jan-25 03:21 016 0 gusting 1 5.6
2020-Jan-25 03:10 052 5.6
2020-Jan-25 03:01 5.6
2020-Jan-25 02:50 062 0 gusting 0 5.6
2020-Jan-25 02:41 081 0 gusting 0 5.6
2020-Jan-25 02:30 025 0 gusting 1 5.6
2020-Jan-25 02:21 060 0 gusting 0 6.1
2020-Jan-25 02:10 015 0 gusting 1 6.1
2020-Jan-25 02:01 026 6.7
2020-Jan-25 01:50 040 0 gusting 0 6.7
2020-Jan-25 01:40 016 0 gusting 1 6.7
2020-Jan-25 01:29 355 1 gusting 2 6.7
2020-Jan-25 01:20 011 1 gusting 2 6.7
2020-Jan-25 01:09 006 0 gusting 2 6.7
2020-Jan-25 01:00 004 0 gusting 1 6.7
2020-Jan-25 00:49 6.7
2020-Jan-25 00:40 016 1 gusting 4 6.7
2020-Jan-25 00:29 022 1 gusting 1 6.1
2020-Jan-25 00:19 052 0 gusting 1 6.1
2020-Jan-25 00:08 035 1 gusting 2 6.1
2020-Jan-24 23:59 045 0 gusting 0 6.1
2020-Jan-24 23:48 032 0 gusting 0 6.1
2020-Jan-24 23:39 024 1 gusting 1 5.6
2020-Jan-24 23:28 5.6
2020-Jan-24 23:19 060 5.0
2020-Jan-24 23:08 056 0 gusting 0 5.6
2020-Jan-24 22:59 020 0 gusting 1 5.6
2020-Jan-24 22:48 037 0 gusting 0 5.6
2020-Jan-24 22:39 046 0 gusting 0 5.6
2020-Jan-24 22:28 5.6
2020-Jan-24 22:18 053 0 gusting 0 5.6
2020-Jan-24 22:07 067 5.6
2020-Jan-24 21:58 5.6
2020-Jan-24 21:47 055 0 gusting 0 5.0
2020-Jan-24 21:38 054 0 gusting 0 5.6
2020-Jan-24 21:27 5.0
2020-Jan-24 21:18 071 5.0
2020-Jan-24 21:08 080 5.0
2020-Jan-24 20:57 5.0
2020-Jan-24 20:47 071 5.0
2020-Jan-24 20:36 084 0 gusting 1 5.0
2020-Jan-24 20:27 072 5.0
2020-Jan-24 20:16 078 0 gusting 0 5.0
2020-Jan-24 20:07 090 0 gusting 1 5.0
2020-Jan-24 19:56 078 0 gusting 1 5.0
2020-Jan-24 19:47 5.0
2020-Jan-24 19:36 087 0 gusting 0 5.0
2020-Jan-24 19:27 076 1 gusting 1 5.0
2020-Jan-24 19:16 5.0
2020-Jan-24 19:07 076 0 gusting 1 5.0
2020-Jan-24 18:56 5.0
2020-Jan-24 18:47 091 0 gusting 1 5.0
2020-Jan-24 18:36 080 5.6
2020-Jan-24 18:27 087 0 gusting 0 5.0
2020-Jan-24 18:16 5.0
2020-Jan-24 18:07 082 0 gusting 1 5.6
2020-Jan-24 17:56 081 5.6
2020-Jan-24 17:47 082 0 gusting 1 5.6
2020-Jan-24 17:36 5.6
2020-Jan-24 17:27 079 0 gusting 0 5.6
2020-Jan-24 17:16 089 5.6
2020-Jan-24 17:07 082 0 gusting 0 5.6
2020-Jan-24 16:56 6.1
2020-Jan-24 16:47 087 0 gusting 0 6.1
2020-Jan-24 16:36 109 6.1
2020-Jan-24 16:27 122 6.1
2020-Jan-24 16:16 114 6.7
2020-Jan-24 16:07 134 1 gusting 2 6.7
2020-Jan-24 15:56 103 0 gusting 0 7.2
2020-Jan-24 15:47 7.8
2020-Jan-24 15:36 137 0 gusting 1 7.8
2020-Jan-24 15:27 128 0 gusting 2 8.3
2020-Jan-24 15:16 141 0 gusting 6 8.9
2020-Jan-24 15:07 159 2 gusting 6 8.9
2020-Jan-24 14:56 122 1 gusting 4 10.0
2020-Jan-24 14:46 166 2 gusting 4 10.0
2020-Jan-24 14:35 117 3 gusting 4 10.0
2020-Jan-24 14:26 180 3 gusting 5 10.6
2020-Jan-24 14:15 161 0 gusting 5 11.1
2020-Jan-24 14:06 124 1 gusting 6 10.6
2020-Jan-24 13:55 104 1 gusting 6 10.6
2020-Jan-24 13:46 108 2 gusting 5 10.6
2020-Jan-24 13:35 149 3 gusting 6 10.6
2020-Jan-24 13:26 125 4 gusting 6 11.1
2020-Jan-24 13:15 078 3 gusting 5 11.1
2020-Jan-24 13:06 136 3 gusting 5 11.1
2020-Jan-24 12:55 185 2 gusting 6 11.1
2020-Jan-24 12:46 176 4 gusting 11 11.1
2020-Jan-24 12:35 114 2 gusting 7 11.1
2020-Jan-24 12:26 214 5 gusting 6 12.2
2020-Jan-24 12:15 184 3 gusting 6 11.7
2020-Jan-24 12:06 184 3 gusting 5 11.7
2020-Jan-24 11:55 277 2 gusting 2 10.6
2020-Jan-24 11:46 126 0 gusting 1 11.7
2020-Jan-24 11:35 005 1 gusting 1 11.7
2020-Jan-24 11:26 102 11.1
2020-Jan-24 11:15 294 1 gusting 4 10.6
2020-Jan-24 11:06 11.1
2020-Jan-24 10:55 214 0 gusting 1 11.1
2020-Jan-24 10:46 047 0 gusting 0 10.6
2020-Jan-24 10:35 289 0 gusting 0 10.6
2020-Jan-24 10:26 217 1 gusting 1 10.0
2020-Jan-24 10:15 013 9.4
2020-Jan-24 10:06 008 3 gusting 4 8.9